This demonstration page uses our WeatherBlox Daily Observations layout. Learn more.

Left ArrowRight Arrow

39.01783, -85.05884

Hourly Observations for February 12, 2020

Temp ( °F °C ) Dew Point ( °F °C ) Humidity (%) Winds ( mph kmh ) Pressure ( in mb ) Visibility ( mi km ) Precip ( " mm )
12:52 am 00:52 Mostly Cloudy 32 0 26 -3.3 79 79 Calm 30.2 1023 9 14.48406 0 0
1:52 am 01:52 Cloudy 34 1.1 26 -3.3 73 73 N 3 6 30.19 1022 9 14.48406 0 0
2:52 am 02:52 Cloudy 31 -0.6 25 -3.9 79 79 Calm 30.19 1023 8 12.87472 0 0
3:52 am 03:52 Cloudy 31 -0.6 26 -3.3 82 82 Calm 30.19 1022 8 12.87472 0 0
4:52 am 04:52 Cloudy 31 -0.6 25 -3.9 79 79 Calm 30.17 1022 9 14.48406 0 0
5:52 am 05:52 Cloudy 33 0.6 26 -3.3 75 75 NE 7 11 30.16 1021 9 14.48406 0 0
6:52 am 06:52 Cloudy 31 -0.6 26 -3.3 82 82 Calm 30.17 1022 8 12.87472 0 0
7:52 am 07:52 Cloudy with Mist and Fog 32 0 26 -3.3 79 79 ESE 6 9 30.14 1021 5 8.0467 0 0
8:52 am 08:52 Cloudy with Mist and Fog 33 0.6 27 -2.8 78 78 E 8 13 30.14 1021 6 9.65604 0 0
9:52 am 09:52 Cloudy with Haze 34 1.1 27 -2.8 76 76 ESE 9 15 30.14 1021 6 9.65604 0 0
10:52 am 10:52 Cloudy 35 1.7 28 -2.2 76 76 E 13 20 30.08 1019 7 11.26538 0 0
11:52 am 11:52 Cloudy with Light Rain 36 2.2 29 -1.7 76 76 ESE 7 11 30.11 1020 7 11.26538 0.001 0.001
12:52 pm 12:52 Cloudy with Light Rain 36 2.2 31 -0.6 82 82 ENE 7 11 30.09 1019 4 6.43736 0.01 0.254
1:52 pm 13:52 Cloudy with Light Rain 36 2.2 32 0 86 86 E 9 15 30.02 1017 3 4.82802 0.05 1.27
2:47 pm 14:47 Cloudy with Light Rain 36 2 32 0 87 87 E 13 20 29.99 1016 2 3.21868 0.03 0.762
2:52 pm 14:52 Cloudy with Light Rain 35 1.7 32 0 89 89 E 10 17 29.97 1015 2 3.21868 0.03 0.762
3:01 pm 15:01 Cloudy with Light Rain 35 1.7 32 0 89 89 E 10 17 29.98 1015 2 3.21868 0.001 0.001
3:52 pm 15:52 Cloudy with Rain 35 1.7 32 0 89 89 E 13 20 29.92 1013 2 3.21868 0.07 1.778
4:18 pm 16:18 Cloudy with Light Rain 35 1.7 32 0 89 89 E 12 19 29.93 1014 2 3.21868 0.06 1.524
4:23 pm 16:23 Cloudy with Mist and Fog 35 1.7 32 0 89 89 E 12 19 29.93 1014 2 3.21868 0.07 1.778
4:52 pm 16:52 Cloudy with Mist and Fog 35 1.7 32 0 89 89 E 12 19 29.9 1013 2 3.21868 0.14 3.556
5:05 pm 17:05 Cloudy with Rain 35 1.7 32 0 89 89 ENE 13 20 29.91 1013 2 3.21868 0.03 0.762
5:38 pm 17:38 Cloudy with Rain 35 1.7 32 0 89 89 NE 15 24 29.88 1012 2 3.21868 0.07 1.778
5:52 pm 17:52 Cloudy with Heavy Rain 35 1.7 32 0 89 89 NNE 13 20 29.85 1011 2 3.21868 0.1 2.54
6:52 pm 18:52 Cloudy with Heavy Rain 35 1.7 32 0 89 89 NE 15 24 29.83 1010 2 3.21868 0.38 9.652
7:52 pm 19:52 Cloudy with Rain 35 1.7 32 0 89 89 NE 13 20 29.8 1009 2 3.21868 0.18 4.572
8:27 pm 20:27 Cloudy with Light Rain 35 1.7 32 0 89 89 NE 13 20 29.77 1008 4 6.43736 0.06 1.524
8:43 pm 20:43 Cloudy with Light Rain 35 1.7 32 0 89 89 E 17 28 29.69 1005 4 6.43736 0.06 1.524
8:52 pm 20:52 Cloudy with Light Rain 35 1.7 32 0 89 89 ENE 15 24 29.68 1005 6 9.65604 0.07 1.778
9:44 pm 21:44 Cloudy with Light Rain 35 1.7 33 0.6 93 93 NE 14 22 29.71 1006 3 4.82802 0.01 0.254
9:52 pm 21:52 Cloudy with Light Rain 35 1.7 33 0.6 93 93 NE 10 17 29.68 1005 3 4.82802 0.01 0.254
10:52 pm 22:52 Cloudy with Light Rain 35 1.7 32 0 89 89 NNE 9 15 29.71 1006 3 4.82802 0.01 0.254
11:52 pm 23:52 Cloudy 35 1.7 32 0 89 89 NE 8 13 29.68 1005 7 11.26538 0.01 0.254

Powered by AerisWeather